User: anonymous   Login
Location: Unspecified
(0.0000°N, 0.0000°E)
Time: 12:36:52
(UTC+00:00)
Language:

ALSAT 1N - Orbit

View from above orbital plane
View from above orbital plane
View from above satellite
View from above satellite

Ground track
Ground track

The orbit data is extracted from the following two-line orbital elements,

1 41789U 16059G   18115.06303233  .00000112  00000-0  30507-4 0  9999
2 41789  98.1230 178.5815 0026966 254.3433 105.4802 14.64145134 84243
Epoch (UTC): 25 April 2018 01:30:45
Eccentricity: 0.0026966
inclination: 98.1230°
perigee height: 661 km
apogee height: 699 km
right ascension of ascending node: 178.5815°
argument of perigee: 254.3433°
revolutions per day: 14.64145134
mean anomaly at epoch: 105.4802°
orbit number at epoch: 8424

The dashed part of the orbit path shows where the satellite is in the earth's shadow,  

DLR